Wind_Speed
2 2 2 2 3 2 2 2 2 2 2 1 1 1 1 1 1 1 1 1 1 1 1 1 2 2 3 3 4 4 4 4 4 4 4 4 4 4 4 4 5 5 5 5 5 5 5 5 5
2 2 2 3 3 3 3 2 2 1 1 0 0 0 1 0 1 1 2 2 2 2 2 2 2 3 4 5 5 5 4 4 5 5 5 5 5 5 5 6 6 6 6 5 5 5 6 5 5
2 3 3 4 4 3 3 2 1 0 0 1 1 2 2 2 2 2 2 2 2 2 2 2 3 4 4 5 5 5 4 4 5 5 6 6 6 6 6 6 7 7 7 7 6 6 6 6 6
3 4 5 5 5 5 4 3 2 1 1 2 2 2 2 3 3 3 3 3 3 3 3 3 3 4 4 5 5 5 5 5 5 5 5 6 6 6 7 7 7 8 8 8 7 7 7 7 7
4 4 5 5 5 4 3 4 3 3 3 3 3 3 4 4 4 4 4 4 4 4 4 4 5 5 5 5 6 6 6 6 6 6 6 7 7 7 7 7 7 8 8 8 8 8 8 8 8
5 5 5 6 5 4 4 4 4 4 4 4 4 5 5 4 4 4 5 5 5 5 6 5 5 6 6 6 6 6 7 7 7 7 7 8 8 8 8 8 8 9 9 9 9 9 8 8 8
6 5 5 5 6 5 5 5 5 5 5 5 6 6 6 5 5 5 6 6 6 6 7 6 6 7 7 7 7 8 7 7 8 7 7 8 8 8 8 9 9 9 9 9 9 9 8 8 9
6 6 6 6 6 6 6 6 7 7 7 7 7 7 7 7 6 7 7 7 7 8 7 7 7 8 8 8 8 8 8 8 8 7 8 8 9 8 8 9 9 9 9 9 9 9 9 9 9
6 6 6 6 7 7 7 7 7 8 8 7 7 7 8 8 7 8 8 8 7 8 8 9 9 9 10 10 9 9 8 7 7 8 8 8 8 8 9 9 9 9 9 10 10 10 10 10 9
6 7 6 7 7 6 7 7 7 8 8 8 8 8 8 9 8 8 8 8 8 8 9 9 9 10 10 10 9 9 9 8 7 8 8 8 8 9 9 9 9 10 10 10 10 10 10 10 9
7 7 6 6 6 6 6 7 8 8 8 8 8 8 9 9 9 9 9 9 9 9 9 9 10 10 10 10 9 9 9 9 9 9 9 9 9 9 9 10 10 10 10 10 10 10 10 10 10
7 6 7 7 7 7 7 7 8 8 8 8 8 9 9 9 9 9 9 10 10 10 10 11 10 10 10 10 10 10 9 9 10 10 10 10 10 10 10 10 10 10 10 10 10 10 10 10 10
6 6 6 7 7 6 7 7 7 8 8 8 8 9 9 9 10 10 10 10 10 10 10 10 11 11 11 11 11 10 10 11 10 10 10 10 10 10 10 10 11 11 10 9 10 10 10 10 10
7 7 7 7 7 6 6 7 7 8 8 9 9 9 9 9 9 10 10 10 10 10 10 10 11 11 11 12 11 11 11 11 11 11 10 11 11 11 11 11 11 10 10 10 10 10 10 11 11
7 7 7 6 6 6 6 7 8 8 9 9 9 9 9 9 10 10 11 11 11 11 11 11 11 11 11 11 12 12 12 12 12 11 11 11 11 11 11 11 11 10 10 11 10 10 11 11 11
7 7 7 6 6 6 7 7 8 8 9 9 9 9 10 10 10 11 11 12 12 12 12 12 12 12 12 12 12 13 13 13 13 12 12 12 12 11 11 11 11 11 11 11 11 11 11 11 11
8 7 6 6 7 7 7 7 7 8 9 9 9 9 10 10 11 11 12 12 12 12 13 13 13 12 13 13 13 14 14 14 14 14 13 13 13 12 12 12 11 11 11 12 12 12 12 11 11
7 7 6 6 6 7 7 7 8 8 9 10 9 9 10 11 11 11 12 13 13 13 13 14 14 13 13 14 14 14 14 14 14 14 14 13 13 13 13 12 12 12 12 12 12 12 12 11 11
7 7 7 7 7 7 7 8 8 9 9 9 9 9 10 11 12 12 12 13 13 14 14 14 14 14 14 14 14 14 14 14 13 13 12 12 12 12 13 13 13 13 12 13 12 12 12 11 11
8 7 7 7 7 8 8 8 8 8 8 9 9 10 10 11 12 12 12 13 14 14 14 14 14 14 14 14 14 13 13 13 12 12 11 11 11 11 12 13 13 13 12 13 12 11 11 11 11
8 7 7 8 8 8 8 8 8 8 8 9 10 10 11 12 12 12 12 12 13 13 13 13 14 13 13 13 13 13 13 13 13 12 12 11 11 11 12 12 12 12 12 12 12 11 11 11 11
8 7 7 8 8 8 9 8 7 7 8 9 10 11 12 12 13 13 13 13 13 13 13 14 13 13 13 13 13 13 14 13 13 13 13 12 12 12 13 13 12 12 12 12 11 11 11 11 11
8 7 8 9 9 9 9 8 7 8 9 9 10 11 12 13 13 13 14 14 14 13 14 14 14 14 13 13 13 14 14 14 14 14 14 13 14 13 13 13 12 12 12 12 11 11 12 12 12
9 9 9 10 10 10 10 10 9 9 10 11 11 12 13 13 14 14 15 15 15 15 15 14 14 15 14 14 14 14 14 14 14 14 14 14 13 13 13 13 13 12 12 12 12 12 12 13 13
9 9 10 11 11 11 11 11 10 10 11 13 13 13 14 15 15 16 16 16 16 15 15 14 14 15 15 14 14 14 15 14 14 14 15 15 14 14 14 13 13 12 12 12 13 13 13 13 13
10 10 11 11 12 11 11 12 11 12 13 14 15 15 15 16 17 16 17 17 17 17 17 16 15 16 15 15 15 15 15 15 15 15 15 16 16 15 15 14 14 13 13 13 13 13 14 14 14
11 12 12 12 13 13 13 13 14 14 15 15 15 16 16 17 18 17 17 18 17 17 17 17 16 16 15 15 15 15 15 15 15 15 16 16 17 17 16 15 14 14 13 13 13 14 14 15 16
12 13 13 13 14 14 15 15 15 16 16 16 16 17 17 18 19 18 18 18 19 18 17 17 16 15 15 15 15 15 15 16 16 16 17 17 17 17 16 16 15 14 14 14 15 15 16 16 17
14 14 15 15 16 16 17 16 17 17 17 17 18 18 18 19 19 19 19 19 19 19 18 17 16 16 16 16 16 16 17 17 18 17 18 17 18 17 16 16 16 16 16 16 16 17 17 17 17
15 15 16 16 17 18 19 18 18 18 18 19 19 20 19 19 20 20 19 19 19 19 18 18 17 17 17 17 17 18 18 18 18 18 18 18 18 17 17 17 17 17 16 16 17 18 18 17 17
Wind_Direction
210 212 219 212 215 213 201 183 149 103 80 77 65 63 63 62 42 43 352 351 13 359 325 315 303 306 305 308 300 295 293 289 280 276 286 285 287 283 291 293 293 293 291 296 301 299 302 299 292
223 219 229 227 228 237 220 213 185 114 80 1 45 322 291 290 320 324 312 326 334 330 318 307 302 312 312 307 301 294 289 286 276 273 277 280 284 284 287 290 291 291 290 290 295 293 294 292 291
252 244 248 250 247 248 230 216 215 158 359 284 272 287 299 297 281 286 294 302 308 310 304 302 299 302 309 306 296 296 293 289 278 272 273 279 286 287 284 285 287 288 288 283 284 287 286 288 291
260 254 252 254 257 257 243 230 234 226 254 287 286 290 285 278 277 282 287 288 293 297 300 300 297 299 304 307 289 284 294 293 290 278 279 282 285 288 285 286 286 287 289 285 285 286 284 285 288
262 258 258 259 261 261 249 247 250 250 246 270 286 284 275 273 272 279 279 282 289 290 290 292 295 292 296 305 301 288 287 288 288 284 275 286 286 285 286 289 290 289 287 285 283 283 285 287 289
260 255 254 260 258 260 247 259 264 266 267 271 281 281 277 277 281 283 284 287 287 288 287 283 288 289 291 294 292 290 285 282 284 286 281 284 288 288 289 289 290 291 291 286 284 284 287 289 289
259 261 261 267 269 266 263 257 261 268 269 273 279 285 282 278 279 280 281 283 284 283 279 277 283 287 289 291 289 286 285 282 280 282 281 285 291 290 291 292 292 292 296 295 293 292 292 296 297
264 268 267 269 273 271 274 268 267 271 277 279 281 283 282 282 280 279 280 279 279 280 276 277 280 283 284 284 289 289 287 285 284 284 284 283 286 289 291 295 291 292 294 296 294 292 293 294 294
267 266 268 270 272 273 276 275 270 274 280 281 278 279 279 281 285 283 281 280 278 276 275 277 278 282 282 283 281 285 284 281 285 287 286 287 288 290 293 293 292 293 294 295 294 293 296 294 291
266 265 267 271 271 275 280 284 282 280 282 281 277 276 276 280 282 286 284 282 279 277 277 278 277 279 279 280 281 281 281 280 281 286 286 288 289 290 293 294 296 296 296 297 294 293 295 294 293
260 262 266 271 275 277 284 285 285 285 286 284 282 280 277 280 280 282 284 284 283 280 277 279 279 279 277 279 279 279 280 281 283 287 288 291 293 290 292 294 296 298 297 297 296 294 293 291 289
259 258 262 270 276 279 281 280 283 284 285 283 282 280 280 282 284 284 282 284 285 284 278 277 277 275 276 278 276 276 278 281 286 289 288 290 290 290 292 293 296 297 297 296 294 294 291 289 290
262 259 264 271 276 280 283 286 285 290 290 288 285 284 282 282 281 281 282 282 284 281 278 277 275 274 273 273 274 275 277 283 285 287 286 285 285 285 288 291 292 293 295 295 294 295 295 292 291
261 261 267 271 274 278 288 291 291 292 292 293 294 292 289 288 286 284 283 282 280 278 277 279 276 274 273 272 273 277 281 282 283 285 285 283 283 285 287 288 289 291 292 291 289 291 295 291 288
259 263 268 266 270 278 287 290 293 295 291 292 292 292 290 288 287 286 284 282 281 279 277 275 274 275 275 274 273 276 278 277 278 282 284 283 281 284 289 290 288 290 291 290 287 288 292 292 289
260 258 257 264 269 280 285 288 288 288 292 293 292 294 293 290 289 288 285 283 282 280 276 275 276 276 275 275 274 275 278 279 280 279 281 280 277 281 286 289 289 288 288 287 285 288 290 290 287
263 265 268 274 278 282 284 285 285 284 289 296 297 296 294 293 292 290 288 286 283 282 280 277 277 278 277 276 276 277 277 279 279 278 275 273 273 275 281 285 287 287 287 285 285 289 290 286 282
268 274 277 276 278 282 287 288 289 290 295 298 302 300 298 296 296 293 290 288 286 283 281 278 278 279 279 278 278 278 280 281 278 277 272 271 271 273 277 282 283 283 284 285 287 287 288 284 281
270 276 275 276 280 286 291 291 295 297 302 305 307 305 304 299 299 295 290 288 287 284 281 279 279 280 280 279 278 278 280 279 276 273 270 271 272 273 275 279 281 282 283 286 286 284 285 284 281
270 275 279 280 282 287 288 290 293 298 306 307 307 305 303 301 305 300 294 289 287 284 282 283 283 282 281 279 279 281 280 278 276 276 275 275 272 275 279 281 282 281 283 286 285 280 281 282 279
269 274 280 284 287 287 288 291 293 298 305 306 307 307 304 301 301 300 299 295 289 284 284 283 282 280 279 278 278 278 279 278 279 280 278 276 274 277 280 282 284 283 282 285 284 281 281 281 280
262 268 276 282 289 292 292 300 299 304 309 312 311 310 308 306 305 302 300 297 291 286 284 281 280 277 276 278 280 280 278 278 279 278 274 272 272 274 278 279 280 281 284 284 281 280 280 281 280
260 265 274 282 287 290 295 297 304 307 311 313 312 310 310 308 306 302 299 295 292 287 283 280 279 279 278 279 279 280 280 279 277 273 273 273 271 273 275 276 278 279 282 281 279 279 277 280 281
261 266 274 280 284 286 294 297 303 312 316 314 311 309 309 306 303 299 297 293 291 288 281 277 277 277 277 278 278 279 278 277 277 273 271 271 270 273 276 275 277 280 282 280 275 276 275 277 279
259 264 271 275 278 285 291 295 300 310 313 313 311 308 307 305 303 299 296 292 291 288 283 277 275 276 275 276 276 276 276 275 276 274 270 269 269 273 274 275 276 279 281 280 276 275 276 276 279
259 265 270 276 281 283 288 294 298 305 308 308 307 305 304 304 304 301 296 292 290 286 282 279 276 275 275 274 275 276 275 274 272 272 270 268 269 271 274 275 272 273 276 277 276 276 276 275 280
266 267 271 276 282 284 287 295 298 301 304 304 303 301 301 302 303 300 296 292 289 286 282 276 274 275 274 273 275 275 272 271 271 271 268 269 269 271 274 273 269 269 273 276 276 278 277 275 279
270 272 272 276 281 284 287 292 299 304 306 306 304 302 301 301 301 300 296 291 289 286 282 276 275 274 273 274 275 274 273 271 271 271 271 270 269 269 270 267 267 269 272 275 277 278 278 277 280
266 272 273 276 282 284 287 292 298 302 304 304 302 300 299 300 299 299 296 293 291 289 284 278 275 273 272 273 273 273 273 274 274 273 272 270 268 268 267 268 269 269 271 275 276 278 279 279 280
267 272 275 277 280 283 289 294 298 301 302 302 300 299 299 298 298 298 296 293 291 287 281 277 275 273 274 274 273 272 272 273 272 273 272 269 268 267 266 269 270 270 270 273 273 274 278 279 280
Height
5896 5896 5896 5897 5897 5897 5896 5896 5896 5896 5896 5896 5896 5896 5896 5897 5897 5899 5897 5895 5895 5895 5894 5894 5893 5893 5892 5892 5892 5892 5892 5891 5891 5891 5891 5891 5890 5889 5889 5888 5888 5887 5886 5885 5885 5884 5884 5883 5882
5896 5896 5897 5897 5896 5896 5896 5896 5896 5896 5896 5896 5896 5896 5896 5896 5896 5896 5895 5895 5895 5894 5894 5893 5893 5892 5892 5892 5891 5891 5891 5890 5890 5890 5890 5890 5889 5889 5888 5888 5887 5886 5885 5885 5884 5884 5883 5882 5881
5895 5896 5897 5897 5896 5896 5896 5895 5895 5896 5896 5896 5896 5896 5896 5896 5896 5895 5895 5894 5894 5894 5893 5893 5892 5892 5892 5891 5891 5890 5890 5890 5889 5889 5889 5889 5888 5888 5887 5887 5886 5885 5885 5884 5883 5882 5882 5881 5881
5896 5896 5896 5896 5895 5896 5895 5895 5895 5895 5895 5895 5895 5895 5895 5895 5895 5895 5894 5894 5893 5893 5893 5892 5892 5891 5891 5890 5890 5890 5889 5889 5888 5887 5888 5888 5887 5887 5886 5886 5885 5884 5884 5883 5882 5881 5881 5880 5879
5895 5895 5895 5894 5894 5894 5894 5894 5894 5894 5894 5894 5894 5894 5894 5894 5894 5893 5893 5893 5892 5892 5892 5892 5891 5890 5890 5889 5889 5889 5888 5888 5887 5886 5886 5886 5886 5885 5885 5884 5884 5883 5882 5881 5881 5880 5879 5879 5878
5895 5894 5894 5893 5893 5894 5893 5893 5893 5893 5893 5893 5893 5893 5893 5893 5892 5892 5892 5892 5891 5891 5891 5890 5890 5890 5889 5888 5888 5887 5887 5886 5886 5885 5885 5885 5884 5884 5883 5883 5882 5881 5881 5880 5879 5879 5878 5877 5876
5894 5894 5893 5893 5892 5892 5893 5892 5892 5892 5892 5892 5892 5891 5891 5892 5891 5891 5890 5890 5890 5890 5890 5889 5889 5888 5888 5887 5887 5886 5886 5885 5885 5884 5883 5883 5883 5882 5882 5881 5881 5880 5879 5879 5878 5877 5876 5875 5875
5892 5893 5892 5892 5891 5891 5891 5891 5891 5891 5891 5891 5891 5890 5890 5890 5890 5889 5889 5889 5889 5888 5888 5888 5887 5887 5887 5886 5885 5884 5884 5884 5883 5883 5882 5882 5881 5880 5880 5879 5879 5879 5878 5877 5876 5875 5874 5874 5873
5891 5892 5890 5890 5890 5890 5889 5889 5889 5889 5889 5889 5889 5889 5888 5888 5888 5887 5887 5887 5887 5886 5886 5886 5886 5885 5885 5884 5883 5883 5882 5882 5882 5881 5880 5880 5879 5879 5878 5878 5877 5876 5876 5875 5874 5873 5872 5871 5871
5889 5889 5889 5889 5889 5888 5888 5888 5888 5888 5887 5887 5887 5887 5886 5886 5886 5886 5885 5885 5885 5885 5884 5884 5884 5883 5883 5882 5882 5881 5880 5880 5880 5879 5879 5878 5878 5877 5876 5876 5875 5874 5874 5873 5872 5871 5870 5869 5869
5888 5888 5888 5887 5886 5887 5886 5886 5886 5886 5886 5885 5885 5885 5884 5884 5884 5884 5883 5883 5883 5883 5882 5882 5881 5881 5881 5880 5880 5879 5879 5878 5878 5877 5877 5876 5876 5875 5874 5874 5873 5872 5872 5871 5870 5869 5868 5867 5867
5886 5886 5886 5885 5885 5885 5885 5885 5884 5883 5884 5883 5883 5882 5882 5882 5882 5882 5881 5881 5881 5880 5880 5880 5879 5879 5879 5878 5878 5877 5877 5876 5876 5875 5875 5874 5874 5873 5872 5872 5871 5870 5869 5869 5868 5867 5866 5865 5864
5884 5884 5884 5884 5883 5883 5883 5882 5882 5882 5881 5881 5880 5880 5880 5879 5879 5879 5879 5878 5878 5878 5878 5877 5877 5877 5876 5876 5875 5875 5875 5874 5873 5873 5872 5872 5872 5871 5870 5869 5869 5868 5867 5866 5866 5865 5864 5863 5862
5883 5882 5882 5882 5881 5881 5881 5881 5880 5880 5879 5879 5878 5878 5877 5877 5877 5876 5876 5876 5875 5875 5875 5875 5874 5874 5873 5873 5873 5872 5872 5872 5871 5870 5870 5869 5869 5868 5868 5867 5866 5865 5865 5864 5863 5862 5862 5861 5860
5881 5881 5881 5880 5880 5880 5880 5879 5879 5878 5877 5877 5876 5875 5875 5875 5874 5874 5873 5873 5873 5872 5872 5872 5871 5871 5871 5870 5870 5870 5869 5869 5868 5867 5867 5867 5866 5865 5865 5864 5864 5863 5862 5862 5861 5860 5859 5858 5857
5879 5880 5879 5879 5878 5878 5879 5878 5877 5875 5875 5874 5874 5873 5872 5872 5872 5871 5870 5870 5869 5869 5869 5868 5868 5868 5868 5867 5867 5866 5866 5866 5865 5864 5864 5863 5863 5863 5862 5862 5861 5860 5860 5859 5858 5857 5856 5856 5855
5877 5877 5877 5877 5876 5876 5876 5875 5875 5873 5873 5872 5871 5871 5870 5869 5869 5868 5867 5866 5866 5866 5865 5865 5865 5865 5864 5864 5863 5863 5863 5862 5861 5861 5860 5860 5860 5860 5859 5859 5858 5858 5857 5856 5855 5855 5854 5853 5852
5875 5875 5875 5875 5874 5874 5873 5873 5872 5871 5871 5870 5869 5868 5867 5867 5866 5865 5864 5863 5863 5862 5862 5862 5861 5861 5861 5860 5860 5859 5859 5858 5857 5857 5857 5857 5856 5856 5856 5856 5855 5855 5854 5853 5852 5852 5851 5850 5850
5873 5873 5873 5873 5872 5872 5871 5871 5870 5869 5868 5867 5866 5865 5865 5864 5863 5862 5861 5860 5859 5859 5858 5858 5858 5857 5857 5856 5856 5855 5855 5854 5854 5853 5853 5853 5853 5853 5852 5852 5852 5851 5851 5850 5849 5849 5848 5847 5846
5871 5871 5871 5870 5870 5869 5869 5869 5868 5867 5866 5865 5864 5863 5862 5861 5860 5859 5858 5857 5856 5855 5855 5854 5854 5854 5853 5852 5852 5852 5851 5850 5850 5850 5850 5850 5850 5849 5849 5849 5848 5848 5847 5847 5846 5845 5845 5844 5843
5869 5869 5869 5868 5867 5867 5867 5866 5866 5865 5864 5863 5861 5860 5859 5858 5857 5856 5855 5853 5852 5852 5851 5851 5850 5850 5849 5849 5848 5848 5848 5847 5847 5847 5847 5847 5846 5846 5846 5845 5844 5844 5844 5843 5842 5842 5841 5841 5840
5867 5867 5866 5866 5865 5865 5865 5864 5863 5862 5861 5860 5859 5857 5856 5854 5853 5852 5851 5849 5848 5848 5847 5847 5846 5846 5845 5845 5845 5844 5844 5844 5844 5843 5843 5843 5843 5843 5842 5841 5841 5841 5840 5839 5839 5839 5838 5838 5837
5864 5864 5864 5863 5863 5862 5861 5861 5861 5859 5858 5857 5856 5854 5853 5851 5850 5849 5847 5846 5845 5844 5843 5842 5842 5841 5841 5841 5841 5840 5840 5840 5840 5839 5839 5839 5839 5839 5838 5838 5837 5837 5836 5836 5836 5835 5835 5834 5834
5862 5862 5862 5861 5860 5860 5859 5859 5858 5857 5855 5854 5853 5851 5850 5848 5847 5845 5844 5842 5841 5840 5839 5838 5838 5837 5837 5837 5837 5836 5836 5836 5835 5835 5835 5835 5835 5835 5835 5834 5834 5833 5833 5832 5832 5831 5831 5831 5830
5859 5860 5859 5858 5857 5857 5856 5855 5855 5854 5852 5851 5850 5848 5847 5845 5844 5842 5840 5838 5837 5836 5835 5834 5834 5833 5833 5833 5832 5832 5832 5831 5831 5831 5831 5831 5831 5831 5831 5830 5830 5830 5829 5829 5828 5828 5827 5827 5827
5856 5857 5857 5856 5855 5854 5853 5852 5852 5850 5849 5847 5846 5844 5843 5841 5840 5838 5836 5834 5833 5831 5831 5830 5830 5829 5829 5828 5828 5828 5827 5827 5827 5827 5827 5827 5827 5827 5826 5826 5826 5826 5825 5825 5824 5824 5824 5823 5823
5853 5853 5853 5853 5851 5851 5850 5849 5848 5847 5846 5844 5842 5840 5839 5837 5835 5833 5831 5829 5827 5826 5825 5825 5825 5825 5824 5824 5824 5823 5823 5823 5822 5822 5822 5822 5822 5822 5822 5822 5822 5821 5821 5821 5820 5820 5819 5819 5819
5851 5850 5850 5849 5848 5847 5846 5845 5844 5843 5841 5840 5838 5836 5834 5832 5830 5828 5826 5824 5822 5821 5820 5820 5819 5819 5819 5819 5819 5819 5818 5818 5818 5817 5817 5817 5817 5817 5817 5817 5817 5817 5817 5816 5816 5816 5815 5815 5814
5847 5846 5845 5845 5844 5843 5842 5844 5841 5839 5837 5835 5833 5831 5829 5828 5825 5823 5820 5819 5817 5816 5815 5814 5814 5814 5814 5814 5814 5813 5813 5813 5812 5812 5812 5812 5812 5812 5812 5812 5812 5812 5812 5812 5811 5811 5810 5810 5809
5843 5842 5842 5842 5840 5839 5838 5840 5836 5834 5832 5831 5829 5826 5825 5823 5820 5818 5816 5814 5812 5811 5810 5809 5809 5809 5809 5809 5808 5808 5808 5807 5807 5807 5807 5807 5807 5807 5807 5807 5807 5807 5807 5807 5807 5806 5805 5805 5804